Home   Weather   Budapest   Past weeks
Flag for Hungary

Past Weather in Budapest, Hungary — Yesterday and Last 2 Weeks

Now
48 °F

Fog.


Feels Like: 48 °F
Forecast: 73 / 51 °F
Wind: 2 mph from North

Location: Ferenc Liszt International Airport

Current Time: Oct 14, 2019 at 7:46:03 am

Latest Report: Oct 14, 2019 at 7:00 am


Visibility: 2 mi

Pressure: 30.15 "Hg

Humidity: 100%

Dew Point: 48 °F

Location of BudapestLocation

Past Weather in Budapest — Graph

°F

Budapest Temperature Yesterday

Maximum temperature yesterday: 72 °F (at 2:30 pm)
Minimum temperature yesterday: 43 °F (at 3:30 am)
Average temperature yesterday: 57 °F

High & Low Weather Summary for the Past Weeks

 TemperatureHumidityPressure
High77 °F (Sep 30, 1:00 pm)100% (Sep 29, 6:00 am)30.30 "Hg (Sep 29, 6:00 am)
Low28 °F (Oct 8, 6:30 am)36% (Sep 30, 5:30 pm)29.62 "Hg (Oct 2, 3:00 pm)
Average55 °F77%29.98 "Hg
* Reported Sep 29 6:00 am — Oct 14 6:30 am, Budapest. Weather by CustomWeather, © 2019

Note: Actual official high and low records may vary slightly from our data, if they occured in-between our weather recording intervals... More about our weather records

Advertising

Budapest Weather History for the Previous 24 Hours

Scroll right to see more
 ConditionsComfort  
Time TempWeatherWind HumidityBarometerVisibility
6:30 am
Mon, Oct 14
48 °FFog.3 mph100%30.18 "Hg2 mi
6:00 am48 °FFog.3 mph100%30.18 "Hg3 mi
5:30 am46 °FFog.2 mph100%30.18 "Hg3 mi
5:00 am45 °FFog.No wind100%30.18 "Hg3 mi
4:30 am46 °FFog.3 mph93%30.18 "Hg3 mi
4:00 am48 °FFog.No wind94%30.18 "Hg3 mi
3:30 am46 °FFog.No wind100%30.15 "Hg3 mi
3:00 am48 °FFog.No wind100%30.15 "Hg3 mi
2:30 am48 °FClear.2 mph100%30.18 "Hg5 mi
2:00 am46 °FClear.1 mph100%30.18 "Hg5 mi
1:30 am48 °FClear.2 mph100%30.18 "Hg10 mi
1:00 am48 °FClear.1 mph94%30.18 "Hg10 mi
12:30 am54 °FClear.3 mph88%30.18 "Hg10 mi
12:00 am57 °FClear.3 mph82%30.18 "Hg10 mi
11:30 pm
Sun, Oct 13
54 °FClear.5 mph88%30.18 "Hg10 mi
11:00 pm55 °FPassing clouds.5 mph88%30.18 "HgN/A
10:30 pm54 °FClear.3 mph88%30.18 "Hg10 mi
10:00 pm57 °FClear.3 mph88%30.18 "Hg10 mi
9:30 pm59 °FClear.3 mph88%30.18 "Hg10 mi
9:00 pm61 °FPassing clouds.5 mph83%30.18 "HgN/A
8:30 pm57 °FClear.3 mph94%30.18 "Hg10 mi
8:00 pm61 °FClear.3 mph83%30.18 "Hg10 mi
7:30 pm57 °FPassing clouds.2 mph94%30.18 "HgN/A
7:00 pm63 °FPassing clouds.5 mph77%30.15 "HgN/A
6:30 pm61 °FClear.2 mph88%30.15 "Hg10 mi
6:00 pm64 °FClear.3 mph73%30.15 "Hg10 mi
5:30 pm70 °FSunny.7 mph69%30.15 "Hg10 mi
5:00 pm72 °FPassing clouds.8 mph65%30.15 "HgN/A
4:30 pm72 °FPassing clouds.8 mph65%30.15 "HgN/A
4:00 pm72 °FPassing clouds.8 mph65%30.15 "HgN/A
3:30 pm72 °FPassing clouds.9 mph65%30.15 "HgN/A
3:00 pm72 °FPassing clouds.9 mph65%30.15 "HgN/A
2:30 pm72 °FPassing clouds.9 mph65%30.15 "HgN/A
2:00 pm70 °FScattered clouds.12 mph69%30.18 "HgN/A
1:30 pm70 °FScattered clouds.12 mph73%30.18 "HgN/A
1:00 pm70 °FPartly sunny.14 mph69%30.18 "HgN/A
12:30 pm68 °FPartly sunny.12 mph73%30.18 "HgN/A
12:00 pm68 °FScattered clouds.9 mph69%30.18 "HgN/A
11:30 am66 °FPartly sunny.10 mph78%30.18 "HgN/A
11:00 am64 °FPassing clouds.8 mph78%30.18 "HgN/A
10:30 am63 °FPassing clouds.5 mph83%30.18 "HgN/A
10:00 am61 °FPassing clouds.5 mph94%30.18 "HgN/A
9:30 am57 °FPartly sunny.5 mph94%30.18 "HgN/A
9:00 am57 °FPartly sunny.6 mph100%30.18 "HgN/A
8:30 am54 °FClear.7 mph100%30.18 "Hg5 mi
8:00 am50 °FClear.5 mph100%30.18 "Hg4 mi
7:30 am46 °FFog.5 mph100%30.18 "Hg3 mi
7:00 am45 °FFog.No wind100%30.18 "Hg4 mi
Weather by CustomWeather, © 2019

See weather overview